{"data":{"norad_id":68081,"epoch":"2026-09-19T06:16:50.286432Z","epoch_age_seconds":162714,"freshness":"FRESH","line1":"1 68081U 26042N   26262.26169313  .00025139  00000+0  75230-3 0  9995","line2":"2 68081  53.1611 353.7878 0000891  10.7107 349.3914 15.34415392 32024","mean_motion":15.34415392,"eccentricity":8.91e-5,"inclination_deg":53.1611,"raan_deg":353.7878,"arg_perigee_deg":10.7107,"mean_anomaly_deg":349.3914,"bstar":0.0007523,"rev_number":3202,"period_min":93.846816677397,"perigee_km":462.04797753255,"apogee_km":463.26700711108,"semimajor_km":6840.7944923218,"source":"CELESTRAK","updated_at":"2026-09-20T09:00:43.779979Z"}}